Location: Ostrava
(49.8330°N, 18.2830°E)
Time: 15:48:51
(UTC+02:00)

ISS - Visible Passes

Search period start: 26 June 2022 00:00
Search period end: 06 July 2022 00:00
Orbit: 415 x 420 km, 51.6° (Epoch: 26 June)

Date Brightness Start Highest point End Pass type
(mag) Time Alt. Az. Time Alt. Az. Time Alt. Az.
29 Jun -1.8 03:23:05 10° S 03:25:23 18° SE 03:27:48 10° E visible
30 Jun -1.4 02:37:20 11° SSE 02:38:11 12° SE 02:39:37 10° ESE visible
01 Jul -3.0 03:24:41 14° SW 03:27:15 38° SSE 03:30:26 10° E visible
02 Jul -2.5 02:39:13 22° S 02:40:20 27° SE 02:43:15 10° E visible
03 Jul -1.9 01:53:54 19° SE 01:53:54 19° SE 01:56:06 10° E visible
03 Jul -3.8 03:26:53 11° WSW 03:30:06 75° SSE 03:33:31 10° ENE visible
04 Jul -1.1 01:08:42 10° ESE 01:08:42 10° ESE 01:08:47 10° ESE visible
04 Jul -3.6 02:41:42 24° SW 02:43:30 55° SSE 02:46:50 10° ENE visible
05 Jul -3.2 01:56:39 37° S 01:57:06 40° SSE 02:00:19 10° E visible
05 Jul -3.5 03:30:30 10° W 03:33:54 72° N 03:37:19 10° ENE visible
